This is the latest recevied weather packets stored in our database for station/object NR5ON-13. If no packets are shown the sender has not sent any weather packets the latest 1 day(s).
| Time | Temp. | Humidity | Pressure | Rain* | Wind** | Luminosity | Snow |
|---|---|---|---|---|---|---|---|
| 1778027608 | 14.44° C | 43% | 1011.6 hPa | 0 mm | 0.89 m/s, 245° | - | - |
| 1778027314 | 14.44° C | 44% | 1011.7 hPa | 0 mm | 0.89 m/s, 212° | - | - |
| 1778027019 | 14.44° C | 42% | 1011.6 hPa | 0 mm | 1.79 m/s, 184° | - | - |
| 1778026708 | 14.44° C | 43% | 1011.7 hPa | 0 mm | 1.79 m/s, 230° | - | - |
| 1778026414 | 14.44° C | 43% | 1011.6 hPa | 0 mm | 1.34 m/s, 243° | - | - |
| 1778026119 | 14.44° C | 42% | 1011.6 hPa | 0 mm | 1.79 m/s, 229° | - | - |
| 1778025824 | 14.44° C | 43% | 1011.7 hPa | 0 mm | 0.89 m/s, 215° | - | - |
| 1778025509 | 14.44° C | 43% | 1011.6 hPa | 0 mm | 1.79 m/s, 182° | - | - |
| 1778025214 | 14.44° C | 43% | 1011.6 hPa | 0 mm | 1.79 m/s, 256° | - | - |
| 1778024920 | 14.44° C | 43% | 1011.6 hPa | 0 mm | 2.68 m/s, 235° | - | - |
| 1778024605 | 14.44° C | 44% | 1011.5 hPa | 0 mm | 1.79 m/s, 195° | - | - |
| 1778024316 | 14.44° C | 45% | 1011.5 hPa | 0 mm | 2.68 m/s, 184° | - | - |
| 1778024015 | 13.89° C | 47% | 1011.5 hPa | 0 mm | 2.68 m/s, 187° | - | - |
| 1778023720 | 13.33° C | 46% | 1011.6 hPa | 0 mm | 1.79 m/s, 207° | - | - |
| 1778023410 | 13.33° C | 46% | 1011.6 hPa | 0 mm | 2.24 m/s, 181° | - | - |
| 1778023114 | 13.33° C | 46% | 1011.7 hPa | 0 mm | 3.13 m/s, 200° | - | - |
| 1778022819 | 13.89° C | 44% | 1011.7 hPa | 0 mm | 4.02 m/s, 211° | - | - |
| 1778022523 | 13.89° C | 44% | 1011.6 hPa | 0 mm | 3.13 m/s, 170° | - | - |
| 1778022208 | 13.89° C | 44% | 1011.4 hPa | 0 mm | 3.58 m/s, 180° | - | - |
| 1778021913 | 13.89° C | 45% | 1011.4 hPa | 0 mm | 2.24 m/s, 185° | - | - |
| 1778021619 | 13.89° C | 45% | 1011.6 hPa | 0 mm | 3.13 m/s, 185° | - | - |
| 1778021304 | 13.89° C | 45% | 1011.4 hPa | 0 mm | 3.13 m/s, 217° | - | - |
| 1778021010 | 14.44° C | 44% | 1011.4 hPa | 0 mm | 2.68 m/s, 200° | - | - |
| 1778020715 | 14.44° C | 44% | 1011.5 hPa | 0 mm | 1.79 m/s, 172° | - | - |
| 1778020403 | 14.44° C | 43% | 1011.5 hPa | 0 mm | 3.13 m/s, 204° | - | - |
* Rain latest hour (hover to see other rain measurements)
** Current wind speed in m/s (hover to see current wind gust speed)